When you browse on this site, cookies collect data to enhance your experience and personalize the content and advertising you see.
Visit our Privacy Policy to learn more. By continuing to use the site, you agree to this use of cookies and data.
  • In Sweden
  • List of Countries
  • For 7 days
  • Water Temperature
  • Weather Map
  • Weather Widgets
  • user-avatar
    Login

    Hourly Weather Karlstad

    Today, 13 October, Sunday

    Time Temperature Precipitation Wind Pressure Humidity
    00:00 +7°C° 0 mm 6 mps 745 mmHg 86%
    01:00 +6°C° 0 mm 5 mps 745 mmHg 87%
    02:00 +6°C° 0 mm 5 mps 746 mmHg 88%
    03:00 +5°C° 0 mm 5 mps 746 mmHg 88%
    04:00 +5°C° 0 mm 4 mps 747 mmHg 89%
    05:00 +5°C° 0 mm 4 mps 747 mmHg 90%
    06:00 +4°C° 0 mm 4 mps 748 mmHg 91%
    07:00 +4°C° 0 mm 3 mps 749 mmHg 93%
    08:00 +6°C° 0 mm 4 mps 749 mmHg 87%
    09:00 +8°C° 0 mm 4 mps 750 mmHg 81%
    10:00 +10°C° 0 mm 4 mps 750 mmHg 75%
    11:00 +11°C° 0 mm 4 mps 750 mmHg 72%
    12:00 +12°C° 0 mm 4 mps 751 mmHg 69%
    13:00 +12°C° 0 mm 4 mps 751 mmHg 65%
    14:00 +12°C° 0 mm 4 mps 751 mmHg 68%
    15:00 +11°C° 0 mm 3 mps 751 mmHg 70%
    16:00 +11°C° 0 mm 3 mps 751 mmHg 73%
    17:00 +10°C° 0 mm 3 mps 751 mmHg 79%
    18:00 +9°C° 0 mm 2 mps 751 mmHg 85%
    19:00 +8°C° 0 mm 2 mps 751 mmHg 91%
    20:00 +8°C° 0 mm 2 mps 751 mmHg 92%
    21:00 +8°C° 0 mm 2 mps 750 mmHg 92%
    22:00 +8°C° 0 mm 2 mps 750 mmHg 93%
    23:00 +8°C° 1.4 mm 3 mps 749 mmHg 94%

    Tomorrow, 14 October, Monday

    Time Temperature Precipitation Wind Pressure Humidity
    00:00 +8°C° 1.4 mm 3 mps 748 mmHg 94%
    01:00 +7°C° 1.4 mm 4 mps 747 mmHg 95%
    02:00 +7°C° 2.5 mm 5 mps 746 mmHg 94%
    03:00 +7°C° 2.5 mm 6 mps 745 mmHg 93%
    04:00 +5°C° 2.5 mm 7 mps 744 mmHg 91%
    05:00 +5°C° 1 mm 7 mps 744 mmHg 91%
    06:00 +5°C° 1 mm 6 mps 744 mmHg 91%
    07:00 +5°C° 1 mm 6 mps 743 mmHg 91%
    08:00 +5°C° 0.7 mm 6 mps 745 mmHg 89%
    09:00 +7°C° 0.7 mm 6 mps 746 mmHg 87%
    10:00 +7°C° 0.7 mm 6 mps 747 mmHg 84%
    11:00 +7°C° 0 mm 6 mps 749 mmHg 82%
    12:00 +8°C° 0 mm 5 mps 751 mmHg 80%
    13:00 +10°C° 0 mm 4 mps 752 mmHg 77%
    14:00 +10°C° 0 mm 3 mps 753 mmHg 79%
    15:00 +9°C° 0 mm 2 mps 754 mmHg 81%
    16:00 +10°C° 0 mm 1 mps 755 mmHg 82%
    17:00 +9°C° 0 mm 1 mps 755 mmHg 85%
    18:00 +8°C° 0 mm 1 mps 756 mmHg 89%
    19:00 +7°C° 0 mm 1 mps 756 mmHg 92%
    20:00 +7°C° 0 mm 1 mps 757 mmHg 92%
    21:00 +6°C° 0 mm 2 mps 757 mmHg 93%
    22:00 +6°C° 0 mm 2 mps 758 mmHg 94%
    23:00 +6°C° 0 mm 2 mps 758 mmHg 94%

    Day after tomorrow, 15 October, Tuesday

    Time Temperature Precipitation Wind Pressure Humidity
    00:00 +6°C° 0 mm 2 mps 758 mmHg 95%
    01:00 +6°C° 0 mm 2 mps 758 mmHg 96%
    02:00 +6°C° 0 mm 2 mps 758 mmHg 96%
    03:00 +5°C° 0 mm 3 mps 758 mmHg 96%
    04:00 +5°C° 0 mm 3 mps 758 mmHg 96%
    05:00 +5°C° 0 mm 3 mps 758 mmHg 95%
    06:00 +7°C° 0 mm 3 mps 758 mmHg 95%
    07:00 +7°C° 0 mm 3 mps 758 mmHg 94%
    08:00 +6°C° 0.7 mm 4 mps 758 mmHg 94%
    09:00 +6°C° 0.7 mm 4 mps 758 mmHg 93%
    10:00 +6°C° 0.7 mm 5 mps 758 mmHg 93%
    11:00 +6°C° 1 mm 5 mps 758 mmHg 92%
    12:00 +6°C° 1 mm 5 mps 757 mmHg 92%
    13:00 +5°C° 1 mm 6 mps 757 mmHg 92%
    14:00 +5°C° 2.1 mm 6 mps 756 mmHg 92%
    15:00 +5°C° 2.1 mm 6 mps 756 mmHg 93%
    16:00 +5°C° 2.1 mm 6 mps 755 mmHg 94%
    17:00 +5°C° 0.4 mm 6 mps 755 mmHg 94%
    18:00 +5°C° 0.4 mm 6 mps 755 mmHg 93%
    19:00 +5°C° 0.4 mm 6 mps 755 mmHg 93%
    20:00 +7°C° 0.4 mm 6 mps 755 mmHg 94%
    21:00 +7°C° 0.4 mm 5 mps 755 mmHg 94%
    22:00 +7°C° 0.4 mm 5 mps 754 mmHg 95%
    23:00 +7°C° 0.4 mm 5 mps 754 mmHg 94%

    16 October, Wednesday

    Time Temperature Precipitation Wind Pressure Humidity
    00:00 +7°C° 0.4 mm 5 mps 754 mmHg 94%
    01:00 +7°C° 0.4 mm 5 mps 754 mmHg 94%
    02:00 +7°C° 0 mm 5 mps 753 mmHg 93%
    03:00 +7°C° 0 mm 6 mps 753 mmHg 93%
    04:00 +7°C° 0 mm 6 mps 753 mmHg 92%
    05:00 +7°C° 0 mm 5 mps 753 mmHg 92%
    06:00 +7°C° 0 mm 5 mps 753 mmHg 92%
    07:00 +7°C° 0 mm 5 mps 752 mmHg 92%
    08:00 +7°C° 0 mm 5 mps 752 mmHg 91%
    09:00 +8°C° 0 mm 5 mps 752 mmHg 91%
    10:00 +8°C° 0 mm 5 mps 752 mmHg 90%
    11:00 +8°C° 0.1 mm 5 mps 752 mmHg 89%
    12:00 +8°C° 0.1 mm 6 mps 752 mmHg 87%
    13:00 +8°C° 0.1 mm 6 mps 752 mmHg 86%
    14:00 +8°C° 0.1 mm 6 mps 752 mmHg 86%
    15:00 +7°C° 0.1 mm 6 mps 752 mmHg 86%
    16:00 +7°C° 0.1 mm 6 mps 752 mmHg 86%
    17:00 +7°C° 0.1 mm 6 mps 752 mmHg 86%
    18:00 +6°C° 0.1 mm 7 mps 752 mmHg 86%
    19:00 +6°C° 0.1 mm 7 mps 752 mmHg 86%
    20:00 +6°C° 0.1 mm 7 mps 752 mmHg 86%
    21:00 +7°C° 0.1 mm 6 mps 752 mmHg 86%
    22:00 +7°C° 0.1 mm 6 mps 752 mmHg 86%
    23:00 +7°C° 0.1 mm 6 mps 752 mmHg 86%

    17 October, Thursday

    Time Temperature Precipitation Wind Pressure Humidity
    00:00 +7°C° 0.1 mm 6 mps 752 mmHg 87%
    01:00 +6°C° 0.1 mm 5 mps 752 mmHg 87%
    02:00 +6°C° 0 mm 5 mps 752 mmHg 87%
    03:00 +6°C° 0 mm 5 mps 752 mmHg 88%
    04:00 +6°C° 0 mm 5 mps 752 mmHg 88%
    05:00 +6°C° 0 mm 5 mps 752 mmHg 88%
    06:00 +6°C° 0 mm 5 mps 753 mmHg 88%
    07:00 +6°C° 0 mm 5 mps 753 mmHg 88%
    08:00 +6°C° 0 mm 5 mps 753 mmHg 88%
    09:00 +6°C° 0 mm 5 mps 754 mmHg 87%
    10:00 +7°C° 0 mm 5 mps 754 mmHg 87%
    11:00 +7°C° 0.1 mm 4 mps 754 mmHg 87%
    12:00 +7°C° 0.1 mm 4 mps 755 mmHg 87%
    13:00 +7°C° 0.1 mm 4 mps 755 mmHg 88%
    14:00 +7°C° 0.1 mm 4 mps 755 mmHg 88%
    15:00 +7°C° 0.1 mm 4 mps 755 mmHg 89%
    16:00 +8°C° 0.1 mm 3 mps 755 mmHg 90%
    17:00 +6°C° 0.1 mm 4 mps 755 mmHg 90%
    18:00 +6°C° 0.1 mm 4 mps 755 mmHg 91%
    19:00 +6°C° 0.1 mm 4 mps 756 mmHg 91%
    20:00 +6°C° 0 mm 4 mps 755 mmHg 91%
    21:00 +6°C° 0 mm 4 mps 755 mmHg 91%
    22:00 +6°C° 0 mm 4 mps 755 mmHg 92%
    23:00 +7°C° 0.1 mm 3 mps 755 mmHg 92%

    18 October, Friday

    Time Temperature Precipitation Wind Pressure Humidity
    00:00 +7°C° 0.1 mm 3 mps 755 mmHg 93%
    01:00 +7°C° 0.1 mm 3 mps 755 mmHg 94%
    02:00 +7°C° 0.1 mm 3 mps 755 mmHg 94%
    03:00 +7°C° 0.1 mm 3 mps 755 mmHg 95%
    04:00 +7°C° 0.1 mm 3 mps 755 mmHg 95%
    05:00 +7°C° 0.1 mm 3 mps 755 mmHg 96%
    06:00 +7°C° 0.1 mm 2 mps 755 mmHg 96%
    07:00 +8°C° 0.1 mm 2 mps 755 mmHg 97%
    08:00 +8°C° 0 mm 2 mps 755 mmHg 96%
    09:00 +9°C° 0 mm 2 mps 756 mmHg 94%
    10:00 +9°C° 0 mm 2 mps 756 mmHg 93%
    11:00 +10°C° 0 mm 2 mps 756 mmHg 88%
    12:00 +12°C° 0 mm 2 mps 756 mmHg 83%
    13:00 +12°C° 0 mm 3 mps 756 mmHg 79%
    14:00 +12°C° 0 mm 2 mps 756 mmHg 82%
    15:00 +10°C° 0 mm 2 mps 756 mmHg 86%
    16:00 +10°C° 0 mm 2 mps 756 mmHg 89%
    17:00 +9°C° 0 mm 2 mps 756 mmHg 91%
    18:00 +8°C° 0 mm 2 mps 757 mmHg 93%
    19:00 +8°C° 0 mm 1 mps 757 mmHg 95%
    20:00 +8°C° 0 mm 1 mps 757 mmHg 95%
    21:00 +8°C° 0 mm 1 mps 757 mmHg 95%
    22:00 +8°C° 0 mm 1 mps 757 mmHg 95%
    23:00 +8°C° 0 mm 1 mps 757 mmHg 95%
    Show more